Location: ???????
(37.9763°N, 23.8889°E)
Time: 08:16:17
(UTC+00:00)

USA 238 - Pass Details

Date: 15 June 2024
Orbit: 920 x 1291 km, 63.4° (Epoch: 19 July)

Event Time Altitude Azimuth Distance (km) Brightness Sun altitude
Exits shadow 00:18:45 42° 174° (S) 1,320 3.8 -23.1°
Maximum altitude 00:20:38 60° 117° (ESE) 1,094 3.7 -23.0°
Drops below altitude 10° 00:27:02 10° 39° (NE) 2,812 7.0 -22.3°
Sets 00:29:47 0° 37° (NE) 3,821 8.1 -22.1°
